Flag for United Kingdom Weather past 2 weeks in Bolton, England, United Kingdom

Now
54 °F

Mostly cloudy.


Feels Like: 53 °F
Forecast: 51 / 67 °F
Wind: 3 mph from Northwest

Location: Manchester Airport

Current Time: Sep 15, 2014 at 3:19:03 AM

Latest Report: Sep 15, 2014 at 2:50 AM


Visibility: 6 mi

Pressure: 30.15 "Hg

Humidity: 88%

Dew point: 50 °F

Location of BoltonLocation

Historic Weather in Bolton — Graph

°F

Bolton temperature yesterday

Maximum temperature yesterday: 64 °F (at 11:50 AM)
Minimum temperature yesterday: 46 °F (at 4:50 AM)
Average temperature yesterday: 56 °F

Past Weeks' High & Low Weather Summary

 TemperatureHumidityPressure
High72 °F (Sep 5, 1:50 PM)100% (Aug 31, 2:50 AM)30.39 "Hg (Aug 31, 2:50 AM)
Low45 °F (Sep 2, 5:50 AM)49% (Sep 7, 4:20 PM)29.95 "Hg (Sep 6, 4:20 AM)
Average58 °F80%30.16 "Hg
* Reported Aug 31 2:20 AM — Sep 15 2:20 AM, Bolton, Weather by CustomWeather, © 2014

Note: Actual official high and low records may vary slightly from our data, if they occured in-between our weather recording intervals... More about our weather records

Advertising

Bolton weather history for previous 24 hours

 ConditionsComfort  
Time TempWeatherWind HumidityBarometerVisibility
2:20 AM
Sep 15
54 °FPassing clouds.7 mph88%30.18 "Hg6 mi
1:50 AM54 °FCool.10 mph88%30.18 "HgN/A
1:20 AM54 °FCool.12 mph88%30.18 "HgN/A
12:50 AM54 °FCool.12 mph88%30.18 "HgN/A
12:20 AM54 °FCool.12 mph88%30.18 "HgN/A
11:50 PM
Sep 14
55 °FCool.12 mph82%30.18 "HgN/A
11:20 PM55 °FCool.10 mph88%30.18 "HgN/A
10:50 PM55 °FClear.8 mph88%30.18 "Hg10 mi
10:20 PM55 °FClear.9 mph88%30.18 "Hg10 mi
9:50 PM55 °FClear.10 mph82%30.21 "Hg10 mi
9:20 PM55 °FClear.9 mph82%30.21 "Hg10 mi
8:50 PM57 °FClear.12 mph77%30.21 "Hg10 mi
8:20 PM57 °FSunny.12 mph77%30.21 "Hg10 mi
7:50 PM57 °FSunny.13 mph77%30.18 "Hg10 mi
7:20 PM59 °FSunny.14 mph77%30.18 "Hg10 mi
6:50 PM61 °FSunny.15 mph72%30.18 "Hg10 mi
6:20 PM61 °FSunny.15 mph72%30.21 "Hg10 mi
5:50 PM61 °FSunny.16 mph77%30.21 "Hg10 mi
5:20 PM61 °FPassing clouds.16 mph77%30.21 "HgN/A
4:50 PM63 °FPassing clouds.14 mph73%30.21 "HgN/A
4:20 PM63 °FPassing clouds.14 mph73%30.21 "HgN/A
3:50 PM63 °FPassing clouds.12 mph73%30.24 "HgN/A
3:20 PM63 °FPassing clouds.12 mph73%30.24 "HgN/A
2:50 PM64 °FPartly sunny.10 mph68%30.24 "HgN/A
2:20 PM64 °FPartly sunny.13 mph68%30.24 "HgN/A
1:50 PM64 °FPartly sunny.10 mph64%30.27 "HgN/A
1:20 PM63 °FPartly sunny.13 mph68%30.27 "HgN/A
12:50 PM64 °FScattered clouds.12 mph64%30.27 "HgN/A
12:20 PM64 °FScattered clouds.12 mph64%30.27 "HgN/A
11:50 AM64 °FPassing clouds.13 mph64%30.27 "HgN/A
11:20 AM63 °FPassing clouds.9 mph68%30.30 "HgN/A
10:50 AM61 °FScattered clouds.8 mph72%30.30 "HgN/A
10:20 AM59 °FPartly sunny.8 mph77%30.30 "HgN/A
9:50 AM57 °FPartly sunny.9 mph82%30.30 "HgN/A
9:20 AM57 °FPartly sunny.6 mph82%30.30 "HgN/A
8:50 AM55 °FPartly sunny.6 mph88%30.30 "HgN/A
8:20 AM54 °FPartly sunny.8 mph94%30.30 "HgN/A
7:50 AM54 °FPartly sunny.7 mph88%30.30 "Hg6 mi
7:20 AM54 °FPassing clouds.7 mph88%30.30 "Hg5 mi
6:50 AM52 °FPassing clouds.8 mph94%30.30 "Hg5 mi
6:20 AM52 °FPassing clouds.7 mph94%30.30 "Hg6 mi
5:50 AM48 °FFog.7 mph94%30.33 "Hg3 mi
5:20 AM48 °FFog.7 mph100%30.33 "Hg3 mi
4:50 AM46 °FClear.7 mph93%30.33 "Hg10 mi
4:20 AM48 °FCool.3 mph94%30.33 "Hg4 mi
3:50 AM48 °FClear.3 mph87%30.33 "Hg10 mi
3:20 AM48 °FClear.7 mph87%30.33 "Hg10 mi
Weather by CustomWeather, © 2014

See weather overviewHow to use our weather pages